Regional Weather Roundup
Issued by NWS

Home | Current Version | Previous Version | Text Only | Print | Product List | Glossary Off
Versions: 1 2 3 4 5 6 7 8 9 10 11 12 13 14 15 16 17 18 19 20 21 22 23 24 25 26 27 28 29 30 31 32 33 34 35 36 37 38 39 40 41 42 43 44 45 46 47 48 49 50

000
ASUS43 KFSD 262210
RWRSD

WEATHER ROUNDUP FOR SOUTH DAKOTA
NATIONAL WEATHER SERVICE SIOUX FALLS SD
500 PM CDT THU MAY 26 2016

NOTE: "FAIR" INDICATES FEW OR NO CLOUDS BELOW 12,000 FEET WITH NO
SIGNIFICANT WEATHER AND/OR OBSTRUCTIONS TO VISIBILITY.


SDZ001>005-009-010-012>017-262300-
NORTHWEST AND NORTH CENTRAL SOUTH DAKOTA

CITY           SKY/WX    TMP DP  RH WIND       PRES   REMARKS
BUFFALO          N/A     65  41  41 N16G24    29.77F
FAITH            N/A     74  39  28 W16G22    29.80F
MOBRIDGE       MOSUNNY   75  51  43 S12       29.75F
$$

SDZ012>016-024>037-041>051-057-063-072>074-262300-
SOUTHWEST AND SOUTH CENTRAL SOUTH DAKOTA

CITY           SKY/WX    TMP DP  RH WIND       PRES   REMARKS
RAPID CTY ARPT LGT RAIN  59  50  72 E8        29.85R
PIERRE         MOSUNNY   74  50  42 SW8       29.75F
CUSTER         CLOUDY    63  29  27 NW9       29.91F
ELLSWORTH AFB  PTSUNNY   64  49  57 SE5       29.84
PHILIP         CLOUDY    71  48  43 NW5       29.79F
PINE RIDGE     CLOUDY    70  43  37 W9        29.83F
WINNER         FAIR      78  51  38 NW7       29.75F
$$

SDZ004>011-016>023-039-040-262300-
NORTHEAST SOUTH DAKOTA

CITY           SKY/WX    TMP DP  RH WIND       PRES   REMARKS
ABERDEEN       MOSUNNY   78  52  40 SW8       29.78F
WATERTOWN      SUNNY     76  49  38 W10       29.79F
BROOKINGS      SUNNY     75  48  38 CALM      29.80F
SISSETON         N/A     77  48  35 NW10G22   29.77F
$$

SDZ017-020-022-023-036>040-048>070-262300-
SOUTHEAST SOUTH DAKOTA

CITY           SKY/WX    TMP DP  RH WIND       PRES   REMARKS
SIOUX FALLS    CLOUDY    74  56  53 E8        29.79F
HURON          SUNNY     77  51  40 MISG      29.75F
CHAMBERLAIN    SUNNY     77  56  49 CALM      29.75F
MITCHELL       SUNNY     76  54  46 SE7       29.76F
YANKTON        CLOUDY    75  57  53 E12G20    29.76F
$$

ABBREVIATIONS USED IN REMARKS
   TC - TEMPERATURE IN CELSIUS
  WCI - WIND CHILL INDEX
   HX - HEAT INDEX
  VSB - VISIBILITY





USA.gov is the U.S. government's official web portal to all federal, state and local government web resources and services.